Wind_Speed
100 99 99 98 97 97 97 96 96 96 96 96 96 96 96 95 95 95 94 94 93 93 93 93 94 94 94 94 94 94 95 95 95 95 95 96 96 96 96 96 96 96 96 96 96 96 96 96 97 97 97 97 97 98 98 98 98 98 98 98 98 98 98 98 97 97 97 96 96 95 94 93 93 92 92 92 92 92 93 93 93 93 94 94 94 94
99 98 98 97 96 96 96 95 95 95 95 95 95 95 95 95 94 94 94 93 93 93 93 93 93 94 94 94 94 94 94 95 95 95 95 96 96 96 96 96 96 96 96 96 97 97 97 97 97 97 98 98 98 98 98 99 99 99 98 98 98 98 98 98 98 97 97 96 96 95 94 93 93 93 93 93 93 93 94 94 94 95 95 95 95 95
98 97 97 96 95 95 95 95 95 95 95 95 95 95 94 94 94 93 93 93 92 92 92 93 93 93 94 94 94 94 94 94 95 95 95 96 96 96 96 96 97 97 97 97 97 97 97 98 98 98 98 99 99 99 99 99 99 99 99 98 98 98 98 98 98 97 97 96 96 95 94 94 93 93 94 94 94 95 95 95 96 96 96 96 96 96
97 96 96 95 95 94 94 94 94 94 94 94 94 94 93 93 93 92 92 92 92 92 92 93 93 93 93 94 94 94 94 94 95 95 96 96 96 96 96 97 97 97 97 97 97 98 98 98 99 99 99 99 100 100 100 99 99 99 99 99 98 98 98 98 98 97 97 96 95 95 94 94 94 94 95 95 95 96 96 96 97 97 97 97 97 97
96 95 95 94 94 94 94 94 93 93 93 93 93 93 93 92 92 92 91 91 92 92 92 93 93 93 93 93 94 94 94 95 95 95 96 96 96 96 97 97 97 97 97 98 98 98 99 99 99 100 100 100 100 100 100 100 99 99 99 99 99 99 98 98 98 97 96 96 95 95 94 95 95 95 96 96 97 97 97 98 98 98 98 98 98 97
95 94 94 94 93 93 93 93 93 93 93 93 93 92 92 91 91 91 91 91 91 92 92 92 93 93 93 93 94 94 94 95 95 96 96 96 96 96 97 97 97 97 98 98 99 99 99 100 100 100 100 101 101 100 100 100 99 99 99 99 99 98 98 98 97 96 96 95 95 95 95 95 96 97 97 98 98 99 99 99 99 99 98 98 98 98
94 94 93 93 93 93 93 93 93 93 93 93 92 92 91 91 90 90 90 91 91 91 92 92 92 93 93 93 94 94 95 95 95 96 96 96 96 96 97 97 97 98 98 99 99 100 100 100 101 101 101 101 101 101 100 100 99 99 99 99 99 98 98 97 96 96 95 95 95 95 96 97 98 98 99 99 99 100 100 100 99 99 99 98 98 98
93 93 93 92 92 92 92 92 92 92 92 92 91 91 90 90 90 90 90 91 91 91 91 92 92 93 93 93 94 94 95 95 95 96 96 96 96 97 97 97 98 98 99 99 100 100 101 101 101 101 101 101 101 101 101 100 100 99 99 98 98 98 97 96 96 95 95 95 96 97 97 98 99 99 100 100 100 100 100 100 100 99 99 99 98 98
93 93 92 92 92 92 92 92 92 92 91 91 90 90 90 90 90 90 90 90 91 91 91 92 92 93 93 94 94 94 95 95 95 95 96 96 96 97 97 98 98 99 100 100 101 101 101 101 102 102 102 101 101 101 101 100 100 99 99 98 98 97 96 96 96 96 96 97 97 98 99 100 100 101 101 101 101 101 100 100 100 100 99 99 99 99
92 92 92 92 92 91 92 92 92 91 91 90 89 89 89 89 89 90 90 90 91 91 91 92 92 93 94 94 94 94 95 95 95 95 96 96 97 97 98 98 99 100 100 101 101 102 102 102 102 102 102 102 102 101 101 100 100 99 98 98 97 97 96 96 96 97 98 98 99 100 100 101 101 101 102 101 101 101 101 100 100 100 100 100 100 100
92 91 91 91 91 91 91 91 91 90 90 89 89 89 88 88 89 89 89 90 91 91 91 92 93 93 94 94 94 94 94 95 95 95 96 96 97 97 98 99 99 100 101 101 102 102 102 102 102 102 102 102 102 102 101 100 100 99 98 97 97 97 97 97 98 99 100 100 101 101 102 102 102 102 102 102 102 101 101 101 101 101 101 101 101 101
91 91 91 91 91 91 91 91 90 89 89 88 88 88 88 88 88 88 89 90 90 91 92 93 93 93 94 94 94 94 94 95 95 96 96 97 97 98 98 99 100 101 101 102 102 102 102 102 102 102 102 102 102 102 101 101 100 99 98 97 97 97 98 99 99 100 101 102 102 103 103 103 103 103 102 102 102 102 101 101 101 102 102 102 102 102
90 90 90 90 90 90 90 90 89 88 88 87 87 87 88 88 88 88 89 89 90 91 92 93 94 94 94 94 94 94 94 94 95 95 96 97 97 98 98 99 100 101 101 102 102 102 102 102 102 103 103 103 102 102 101 100 99 98 98 98 98 98 99 100 101 102 102 103 103 103 103 103 103 103 102 102 102 102 102 102 102 102 103 103 103 102
90 90 90 90 90 90 89 89 88 87 87 87 87 87 87 87 88 88 89 89 90 91 92 93 94 94 94 94 93 93 93 94 94 95 96 97 98 98 99 99 100 101 101 102 102 102 102 103 103 103 103 103 103 102 101 100 99 99 98 98 99 99 100 101 102 103 103 103 103 103 103 103 103 103 102 102 102 102 102 102 102 103 103 104 103 102
89 89 89 90 89 89 88 87 87 86 86 86 86 87 87 87 88 88 89 90 91 92 92 93 94 94 94 94 93 93 93 93 94 95 96 97 98 98 99 99 100 101 101 102 102 103 103 103 103 103 103 103 103 102 101 100 100 99 99 99 100 100 101 102 102 103 103 103 103 103 103 103 103 102 102 102 102 102 102 102 102 103 103 103 103 102
89 89 89 89 88 88 87 86 86 86 86 86 86 86 86 87 88 88 89 90 91 92 93 93 94 94 95 94 93 93 92 92 93 94 96 97 98 99 99 99 100 101 101 102 102 103 103 103 103 103 103 103 103 102 101 100 100 100 100 100 100 101 102 102 103 103 103 103 103 103 102 102 102 102 102 102 102 102 102 102 102 102 103 102 102 101
88 88 88 88 87 87 86 85 85 85 85 85 86 86 86 87 88 88 89 90 91 92 92 93 93 94 95 95 94 93 92 92 93 94 95 97 98 99 99 99 100 101 101 102 102 103 103 103 103 103 103 103 102 102 101 101 101 101 101 101 101 102 102 102 102 103 103 102 102 102 102 102 102 101 102 102 102 102 101 101 101 101 101 100 100 99
88 87 87 86 86 85 85 84 84 84 84 85 85 86 87 87 88 89 89 90 91 92 92 92 93 93 94 94 94 94 93 92 93 94 95 96 98 99 99 99 100 101 101 102 102 103 103 103 103 103 103 102 102 102 102 102 102 102 102 102 102 102 102 102 102 102 102 102 102 101 101 101 101 101 101 101 101 101 101 100 99 98 98 97 97 96
87 86 86 85 84 84 84 84 83 84 84 85 85 86 87 88 88 89 90 90 91 91 91 92 92 92 93 93 93 93 93 93 93 93 94 96 97 98 99 99 100 100 101 102 102 102 102 103 103 103 102 102 102 102 102 103 103 103 103 102 102 102 102 101 101 101 101 101 101 101 101 101 101 101 101 101 101 100 99 98 96 95 95 94 94 93
86 85 84 84 83 83 83 83 83 83 84 85 86 86 87 88 89 89 90 90 90 90 90 91 91 92 92 92 93 93 93 93 93 93 94 95 97 98 99 99 100 100 101 102 102 102 102 102 102 102 102 102 103 103 103 103 103 103 103 103 102 102 101 101 101 100 100 100 100 100 100 100 100 100 101 100 100 98 97 95 93 92 91 90 90 90
84 84 83 82 82 82 82 83 83 84 84 85 86 86 87 88 89 90 90 90 90 90 90 90 90 91 91 91 92 93 93 92 92 93 94 95 97 98 99 99 100 100 101 101 101 101 101 102 102 102 102 103 103 103 103 104 103 103 103 102 102 102 101 101 100 100 100 100 100 100 100 100 100 100 100 99 98 96 94 92 90 88 87 86 86 86
82 82 82 81 81 81 82 82 83 84 84 85 85 86 87 88 89 89 89 89 89 89 89 89 90 90 91 91 92 92 92 92 92 92 93 95 96 98 99 99 99 100 100 101 101 101 101 101 102 102 102 103 103 103 103 103 103 103 102 102 101 101 101 101 100 100 100 101 101 101 101 100 100 100 99 98 96 93 91 88 86 84 83 82 82 82
81 80 80 80 80 81 82 82 83 84 84 85 85 86 87 88 88 88 88 88 88 88 88 89 89 90 90 91 92 92 92 92 92 92 93 94 96 98 98 99 99 99 100 100 100 100 100 101 101 102 102 103 103 103 103 103 102 102 101 101 101 101 101 101 100 101 101 102 102 102 102 101 101 100 98 96 94 91 88 85 82 80 79 78 78 78
79 79 79 80 80 81 82 83 83 84 84 85 85 86 87 87 87 87 87 87 87 87 87 88 89 90 90 91 92 92 93 93 93 93 93 94 96 97 98 98 99 99 99 99 99 99 100 101 101 102 102 102 102 102 102 102 101 101 100 100 100 100 100 100 101 101 102 103 103 103 103 102 101 100 98 96 92 89 85 82 79 76 74 73 73 73
78 78 79 80 80 81 82 83 83 83 84 84 85 86 86 86 86 86 86 86 86 86 86 87 88 89 90 91 92 93 93 93 93 93 93 94 96 97 98 98 98 98 98 98 98 99 99 100 101 101 101 101 101 101 101 101 100 100 99 99 99 99 100 100 101 102 102 103 104 104 103 102 101 100 98 95 92 89 85 81 77 74 71 69 69 69
77 78 79 80 80 81 82 82 83 83 83 84 85 85 85 85 85 85 85 85 85 85 86 87 88 89 90 91 92 93 94 94 93 93 94 94 96 97 97 97 97 97 97 97 97 98 98 99 100 100 100 100 100 100 100 100 99 99 98 98 98 98 99 99 100 102 103 104 104 104 103 102 100 99 97 95 92 89 85 81 77 74 71 68 66 65
77 78 79 80 80 81 82 82 82 83 83 84 84 84 84 83 83 84 84 84 85 85 85 87 88 89 90 91 92 93 94 94 94 94 94 94 95 96 96 96 96 95 95 96 96 96 97 98 99 99 99 99 99 99 99 98 98 97 97 97 97 98 98 99 100 101 103 103 103 103 102 100 99 98 96 94 91 88 85 81 78 74 71 68 65 63
77 78 79 80 80 81 81 81 82 82 83 83 83 83 82 82 82 82 83 84 84 85 85 86 88 89 90 91 92 93 94 94 94 94 94 94 95 95 95 95 94 94 94 94 95 95 96 97 97 98 98 98 98 98 98 97 97 96 96 96 96 97 97 98 100 101 102 103 103 102 100 99 98 96 95 93 91 88 84 81 77 74 70 67 64 62
77 78 79 79 80 80 80 81 81 82 82 82 82 81 81 80 80 81 82 83 84 84 85 87 88 88 90 91 92 93 94 94 94 94 94 94 94 94 94 94 93 93 93 93 93 94 95 95 96 97 97 97 97 97 96 96 95 95 95 95 95 96 96 98 99 100 101 101 101 100 98 97 96 95 93 92 89 86 83 80 76 72 69 66 63 61
77 78 78 79 79 79 80 80 81 81 81 81 80 80 80 80 80 81 82 83 83 84 86 87 88 88 89 90 92 93 94 95 94 93 93 93 93 93 93 93 93 92 92 92 93 93 94 94 95 96 96 96 96 96 95 95 94 94 93 93 94 94 95 97 98 99 100 100 99 98 96 95 94 93 92 90 88 85 82 78 75 71 67 64 61 59
77 77 78 78 78 78 79 80 80 80 80 79 79 78 79 79 80 80 81 82 83 84 86 87 88 88 89 90 91 93 94 94 94 93 92 92 92 92 92 92 92 92 92 92 92 92 93 93 94 94 95 95 95 95 94 93 93 92 92 92 93 93 95 96 97 98 98 98 97 95 94 93 92 91 89 88 86 83 80 77 73 70 66 63 60 58
76 77 77 77 77 78 78 79 79 78 78 77 77 77 78 78 79 80 81 82 83 84 85 86 87 88 89 90 90 92 93 93 93 92 91 91 92 92 91 92 92 92 91 91 91 91 92 92 93 93 94 94 94 94 93 92 92 91 91 91 92 93 94 95 96 96 96 95 94 93 92 90 89 88 87 85 84 81 78 75 72 69 65 62 58 56
75 75 76 76 76 77 77 77 77 76 76 76 76 77 77 78 79 80 81 82 83 84 85 86 87 88 88 89 90 91 91 92 91 91 90 90 91 91 91 91 91 91 91 91 90 90 90 91 91 91 92 92 92 92 92 91 91 90 90 91 91 92 93 94 94 94 94 93 91 90 89 88 86 85 84 83 81 79 76 73 70 67 64 61 58 55
74 74 74 75 75 75 76 75 75 74 74 75 76 76 77 78 79 80 81 82 83 84 84 85 86 87 88 88 89 90 91 91 90 90 90 90 90 90 90 90 90 91 91 91 90 90 90 90 90 90 90 90 90 90 90 90 90 90 90 90 90 91 92 93 93 92 91 90 89 88 86 85 83 82 81 80 78 76 73 71 68 66 64 60 57 54
73 73 73 74 74 74 74 73 73 73 74 74 75 76 77 78 80 81 82 82 83 84 84 84 85 85 86 87 88 89 90 90 90 89 89 89 89 89 90 90 90 90 90 90 90 90 89 89 89 89 88 88 88 88 88 88 88 88 89 89 90 91 91 92 91 90 89 88 87 85 83 82 80 79 77 76 75 73 70 68 66 64 62 59 56 53
71 72 72 72 72 72 72 72 72 73 74 75 75 77 77 79 80 81 82 82 83 83 83 84 84 85 85 86 87 88 89 90 89 89 89 89 89 89 89 89 89 89 89 89 89 89 88 88 87 87 87 87 86 86 86 87 87 87 87 88 89 90 90 90 90 89 87 86 84 83 81 79 77 75 74 73 71 69 67 65 64 62 61 58 55 51
70 71 71 71 71 70 71 71 72 73 74 75 76 77 78 79 80 80 81 82 82 82 83 83 84 85 85 86 87 88 88 89 89 89 88 88 88 88 88 89 89 88 88 88 88 87 87 86 86 85 85 85 84 84 85 85 85 86 86 87 88 89 89 89 88 87 86 84 82 80 78 76 74 73 71 70 68 66 64 62 61 60 59 56 53 50
69 69 70 69 69 69 70 71 72 73 74 75 76 77 78 79 79 80 80 81 81 82 82 83 84 85 86 86 87 87 88 88 88 88 88 88 87 87 88 88 88 88 87 87 87 86 86 85 85 84 84 83 83 83 83 84 84 84 85 85 86 87 88 88 87 86 84 82 80 78 76 73 71 70 68 66 65 62 60 58 58 57 56 54 51 48
68 68 68 68 69 69 70 71 72 73 74 75 76 77 78 78 79 79 80 80 80 81 82 83 84 85 86 86 87 87 87 88 88 88 88 88 87 87 87 88 88 87 87 86 86 85 85 84 84 83 83 83 82 82 83 83 83 83 83 84 84 85 85 86 85 84 82 80 78 76 73 71 69 67 65 63 61 59 57 55 55 54 53 52 49 46
67 67 68 68 69 70 71 72 73 74 74 75 76 76 77 78 78 79 79 79 80 81 82 83 84 85 85 86 86 87 87 87 88 88 88 87 87 87 87 87 87 86 86 86 85 85 84 84 83 83 82 82 82 82 82 82 82 83 83 83 83 83 83 83 83 82 81 78 76 74 71 68 66 64 62 60 59 56 54 53 52 51 50 49 47 44
66 67 67 68 69 70 71 72 73 73 74 75 75 76 76 77 78 78 79 80 80 81 82 83 84 84 85 86 86 86 87 87 87 87 87 87 87 87 86 86 86 86 86 85 85 84 84 84 84 83 83 82 82 82 81 82 82 82 82 82 82 81 81 81 81 80 79 76 74 71 69 66 63 61 59 58 56 54 52 50 49 48 47 46 44 42
66 67 68 69 69 70 71 72 72 73 74 74 75 75 76 76 77 78 79 80 81 82 82 83 84 84 85 86 86 86 87 87 87 87 87 87 87 86 86 86 86 85 85 85 85 84 84 84 84 84 83 83 82 82 81 81 81 81 81 81 81 80 79 79 78 77 76 74 72 69 66 64 61 59 57 55 54 52 50 48 47 46 45 43 41 40
66 67 68 69 70 70 71 72 72 73 73 74 74 75 76 76 77 78 79 80 81 82 82 83 83 84 85 86 86 87 87 87 87 87 87 87 86 86 86 85 85 85 84 84 84 84 84 84 84 84 83 83 82 82 81 81 80 80 80 80 80 79 79 78 76 75 73 72 70 67 65 62 59 57 55 54 52 50 48 46 45 44 43 41 39 37
66 67 68 69 69 70 71 71 72 72 73 73 74 75 76 76 77 78 79 80 81 82 82 83 83 84 84 85 86 87 87 87 87 87 86 86 86 86 85 85 85 84 84 84 84 84 84 84 84 84 83 83 82 81 81 80 80 79 79 79 79 78 78 77 75 73 72 69 67 65 63 60 58 55 54 52 50 48 46 45 43 42 41 39 37 35
66 67 68 69 69 70 70 71 72 72 73 74 74 75 76 77 78 78 79 80 81 81 82 82 83 84 85 85 86 86 87 87 87 86 86 86 85 85 85 84 84 84 83 83 83 83 83 84 84 84 83 82 82 81 80 80 79 79 78 78 77 77 76 75 74 72 70 68 66 63 61 58 56 54 52 51 49 46 44 43 42 40 39 37 35 33
66 67 68 68 69 69 70 71 72 72 73 74 75 76 76 77 78 79 79 80 81 82 82 82 83 84 85 85 85 86 86 86 86 86 85 85 85 84 84 84 83 83 83 83 83 83 83 83 83 83 83 82 81 80 79 79 79 78 77 77 76 76 75 74 72 71 69 67 64 62 59 56 54 52 51 49 47 45 43 41 40 39 37 35 33 32
66 67 67 68 69 69 70 71 72 73 74 75 75 76 77 77 78 79 79 80 81 82 82 83 83 84 84 85 85 85 85 85 85 85 85 84 84 84 83 83 83 82 82 82 82 82 82 83 83 83 82 82 81 80 79 78 78 77 77 76 75 75 74 72 71 69 67 65 63 60 57 55 52 51 49 47 46 44 42 40 38 37 35 33 32 30
66 66 67 68 69 70 71 72 72 73 74 75 76 76 77 78 78 79 80 80 81 82 82 83 83 84 84 84 84 84 84 84 84 84 84 83 83 83 83 82 82 81 81 81 81 81 82 82 82 82 82 81 80 79 78 77 76 76 75 75 74 73 72 71 69 67 65 63 61 58 56 53 51 49 48 46 44 42 40 38 37 35 33 32 30 28
66 67 68 68 69 70 71 72 73 74 75 75 76 77 77 78 78 79 80 81 81 82 83 83 83 83 83 83 83 83 83 83 83 82 82 82 82 82 82 81 81 81 80 80 80 81 81 81 82 82 81 81 80 79 77 76 75 74 73 73 72 72 70 68 67 65 63 61 59 56 54 51 50 48 47 45 43 41 39 37 35 33 32 30 28 26
66 67 68 69 70 71 72 73 73 74 75 76 77 77 78 79 79 80 80 81 82 82 82 82 83 83 83 83 83 82 82 82 82 82 82 81 81 81 81 80 80 80 80 79 79 79 80 80 81 81 80 80 79 78 76 74 73 72 71 71 71 70 68 66 65 63 61 59 57 54 52 50 48 46 45 43 41 39 37 35 33 32 30 28 26 25
67 68 69 70 71 72 72 73 74 75 76 76 77 78 79 79 80 80 81 81 81 82 82 82 82 82 82 82 82 82 81 81 81 81 81 81 80 80 80 80 79 78 78 78 78 78 78 79 80 81 80 79 78 76 75 73 72 71 70 69 69 68 67 65 63 61 59 57 55 53 50 48 46 44 43 41 39 37 36 34 32 30 28 26 25 23
Wind_Direction
287 287 288 288 289 289 290 290 290 290 291 291 291 291 291 291 291 291 291 291 291 291 292 292 292 293 293 293 294 294 294 294 294 294 294 294 294 294 294 294 295 295 295 295 296 296 296 296 296 296 296 296 296 296 296 296 296 296 296 296 296 296 295 295 295 294 294 294 293 293 293 292 292 292 292 291 291 291 291 291 290 290 289 289 288 287
287 287 288 289 289 289 290 290 290 290 290 291 291 291 291 291 291 291 291 291 291 291 292 292 292 293 293 293 294 294 294 294 294 294 294 294 294 294 294 295 295 295 295 296 296 296 296 296 296 296 296 296 296 296 296 296 296 296 296 296 296 295 295 295 295 294 294 294 293 293 293 292 292 292 292 292 291 291 291 290 290 289 289 288 288 287
287 288 288 289 289 289 290 290 290 290 290 291 291 291 291 291 291 291 291 291 291 291 292 292 292 293 293 293 293 294 294 294 294 294 294 294 294 294 295 295 295 296 296 296 296 296 296 296 296 296 296 296 296 296 296 296 296 296 296 296 296 296 295 295 295 294 294 294 293 293 293 292 292 292 292 292 292 291 291 290 290 290 289 288 288 287
287 288 288 289 289 289 289 290 290 290 290 290 290 291 291 291 290 291 291 291 291 291 292 292 292 293 293 293 293 293 293 293 293 294 294 294 294 295 295 295 296 296 296 296 296 296 296 296 296 296 296 296 296 296 296 296 296 296 296 296 296 296 295 295 295 295 294 294 294 293 293 293 293 293 292 292 292 292 291 291 290 290 289 289 288 287
287 288 288 288 289 289 289 290 290 290 290 290 290 290 290 290 290 290 290 291 291 291 292 292 292 293 293 293 293 293 293 293 293 294 294 294 295 295 295 296 296 296 296 296 296 296 296 296 296 296 296 297 297 297 297 297 297 297 296 296 296 296 296 295 295 295 294 294 294 293 293 293 293 293 293 293 293 292 292 292 291 291 290 289 289 288
287 287 288 288 289 289 289 289 290 290 290 290 290 290 290 290 290 290 290 291 291 291 292 292 293 293 293 293 293 293 293 293 294 294 294 295 295 295 296 296 296 296 296 296 296 296 296 296 296 297 297 297 297 297 297 297 297 297 297 297 296 296 296 296 295 295 295 294 294 294 294 294 294 294 294 294 294 293 293 293 292 292 291 290 289 289
287 287 288 288 288 289 289 289 290 290 290 290 290 290 290 290 290 290 290 291 291 292 292 292 293 293 293 293 293 293 293 293 294 294 295 295 295 296 296 296 296 296 296 296 296 296 296 297 297 297 297 297 297 297 297 297 297 297 297 297 297 296 296 296 296 295 295 295 295 295 295 295 295 295 295 295 295 294 294 293 293 292 292 291 290 289
287 287 288 288 288 289 289 289 289 289 289 289 289 289 289 290 290 290 290 291 291 292 292 292 293 293 293 293 293 293 293 294 294 295 295 295 296 296 296 296 296 296 296 296 297 297 297 297 297 297 297 297 297 297 297 297 298 298 298 297 297 297 297 297 296 296 296 296 296 296 296 296 296 296 296 296 295 295 295 294 294 293 292 292 291 290
287 287 288 288 288 288 289 289 289 289 289 289 289 289 289 290 290 290 291 291 292 292 292 292 292 292 292 293 293 293 294 294 295 295 296 296 296 296 296 297 297 297 297 297 297 297 297 297 297 297 298 298 298 298 298 298 298 298 298 298 298 298 298 297 297 297 297 297 297 297 297 297 297 297 297 297 296 296 295 295 294 294 293 292 292 291
287 287 287 288 288 288 289 289 289 289 289 289 289 289 289 290 290 291 291 291 292 292 292 292 292 292 292 293 293 293 294 295 295 296 296 296 296 297 297 297 297 297 297 297 297 297 297 298 298 298 298 298 298 299 299 299 299 299 299 299 299 299 299 299 298 298 298 298 298 298 298 298 298 298 298 298 297 297 296 296 295 295 294 294 293 292
286 287 287 287 288 288 288 288 288 288 288 289 289 289 289 290 290 291 292 292 292 292 292 292 292 292 293 293 293 294 295 295 296 296 296 296 297 297 297 297 297 297 297 297 297 298 298 298 299 299 299 299 299 300 300 300 300 300 300 300 300 300 300 300 299 299 299 299 300 300 300 299 299 299 299 298 298 298 297 297 296 296 296 295 294 294
286 287 287 287 288 288 288 288 288 288 288 288 289 289 289 290 291 291 292 292 292 292 292 292 292 292 293 293 294 295 295 296 296 296 297 297 297 297 297 297 297 297 297 298 298 298 299 299 299 300 300 300 300 301 301 301 301 301 301 301 301 301 300 300 300 300 300 300 300 300 300 300 300 300 300 299 299 299 298 298 298 297 297 296 296 295
286 286 287 287 287 287 288 288 288 288 288 288 289 289 290 290 291 291 292 292 292 292 292 292 292 292 293 294 294 295 296 296 297 297 297 297 297 297 297 297 298 298 298 298 299 299 299 300 300 301 301 301 301 301 301 302 302 302 301 301 301 301 301 301 301 301 301 301 301 301 301 301 301 300 300 300 300 299 299 299 299 298 298 298 297 296
286 286 287 287 287 287 287 287 288 288 288 288 289 290 290 291 291 291 291 291 291 291 292 292 292 293 293 294 295 296 296 296 297 297 297 297 297 297 298 298 298 298 299 299 299 300 300 301 301 302 302 302 302 302 302 302 302 302 302 302 302 302 302 302 302 302 302 302 302 302 302 301 301 301 301 301 300 300 300 300 300 300 299 299 298 297
286 286 286 287 287 287 287 287 287 288 288 289 289 290 290 290 291 291 291 291 291 291 291 292 292 293 294 295 295 296 296 296 297 297 297 297 297 298 298 298 299 299 299 300 300 301 301 302 302 302 302 302 302 302 302 302 302 302 302 302 302 302 302 302 302 302 302 302 302 302 302 302 302 301 301 301 301 301 301 301 301 301 300 300 299 298
285 286 286 286 287 287 287 287 287 288 288 289 289 290 290 290 290 290 290 291 291 291 292 292 293 294 294 295 295 296 296 296 297 297 297 297 298 298 298 299 299 300 300 301 301 302 302 302 303 303 303 303 303 303 303 303 303 303 303 303 303 303 303 303 303 303 303 303 303 303 302 302 302 302 302 302 302 302 302 302 302 301 301 300 299 298
285 285 286 286 286 286 286 287 287 288 288 289 289 289 290 290 290 290 290 290 291 291 292 293 294 294 295 295 295 296 296 297 297 297 298 298 298 299 299 300 300 301 301 301 302 302 303 303 303 303 303 303 303 303 303 303 303 303 303 303 303 303 304 303 303 303 303 303 303 303 303 303 303 303 303 303 303 303 303 303 302 302 301 300 299 298
285 285 285 286 286 286 286 287 287 288 288 289 289 289 289 289 289 290 290 290 291 292 292 293 294 294 295 295 296 296 297 297 297 298 298 298 299 299 300 300 301 301 301 302 302 303 303 303 303 303 303 303 303 303 303 303 303 304 304 304 304 304 304 304 304 304 304 303 303 303 303 303 303 303 303 303 303 303 303 303 302 302 301 300 299 298
284 285 285 285 285 286 286 287 287 288 288 288 288 288 289 289 289 289 290 290 291 292 293 294 294 295 295 295 296 296 297 297 298 298 299 299 299 300 300 301 301 301 302 302 302 303 303 303 303 303 303 303 303 303 304 304 304 304 304 305 305 305 304 304 304 304 304 304 304 303 303 304 304 304 304 304 304 304 304 303 303 302 301 300 299 298
284 284 284 285 285 286 286 287 287 287 288 288 288 288 288 289 289 290 290 291 292 293 293 294 294 295 295 295 296 296 297 298 298 299 299 299 300 300 300 301 301 302 302 302 303 303 303 303 303 303 303 303 304 304 304 304 305 305 305 305 305 305 305 305 305 304 304 304 304 304 304 304 304 304 304 304 304 304 304 303 303 302 301 300 299 298
284 284 284 284 285 286 286 287 287 287 287 287 288 288 288 289 289 290 291 292 292 293 294 294 294 295 295 296 296 297 297 298 298 299 299 300 300 300 301 301 301 302 302 303 303 303 304 304 304 304 304 304 304 304 304 305 305 305 305 305 306 305 305 305 305 305 305 305 305 304 305 305 305 305 305 305 305 305 304 304 303 302 301 300 299 298
283 283 284 284 285 286 286 286 286 286 287 287 288 288 289 289 290 290 291 292 293 294 294 294 295 295 296 296 296 297 297 298 298 299 299 300 300 300 301 301 302 302 303 303 303 304 304 304 304 304 304 304 304 305 305 305 305 306 306 306 306 306 306 306 306 306 306 306 306 306 306 306 306 306 306 306 305 305 304 304 303 302 301 300 299 298
283 283 284 284 285 285 285 285 286 286 286 287 288 288 289 289 290 291 292 293 294 294 294 295 295 295 296 296 296 297 297 298 298 299 300 300 300 300 301 302 302 303 303 303 304 304 304 304 304 304 304 304 305 305 305 305 306 306 306 307 307 307 307 307 307 307 307 307 307 307 307 307 307 307 307 306 306 305 305 304 303 303 302 300 299 297
282 283 284 284 284 284 285 285 285 286 287 287 288 288 289 290 290 292 292 293 294 294 294 295 295 296 296 296 296 297 297 298 299 299 300 300 301 301 301 302 303 303 303 304 304 304 304 304 304 304 304 305 305 305 305 306 306 307 307 307 307 308 308 308 308 308 308 308 308 308 308 308 308 308 308 307 307 306 306 305 304 303 302 300 299 297
282 283 283 284 284 284 284 285 285 286 287 287 288 288 289 290 291 292 293 293 294 294 295 295 295 296 296 297 297 297 298 298 299 300 301 301 301 301 302 302 303 303 304 304 304 304 304 304 304 304 305 305 305 306 306 306 307 307 308 308 308 309 309 309 309 309 309 309 309 309 309 309 309 309 309 308 308 307 307 306 305 304 303 301 299 297
282 283 283 283 283 284 284 285 286 286 287 287 288 289 290 291 292 293 293 293 294 294 295 295 296 296 296 297 297 298 298 299 300 300 301 301 302 302 302 302 303 303 304 304 304 304 304 305 305 305 305 305 306 306 306 307 307 308 308 309 309 309 310 310 310 310 309 309 309 310 310 310 310 310 310 309 309 308 308 307 307 306 305 303 300 298
282 282 282 283 283 284 284 285 286 286 287 288 288 289 291 292 292 293 293 294 294 295 295 296 296 296 297 297 298 298 299 300 300 301 301 302 302 302 302 303 303 304 304 304 305 305 305 305 305 305 306 306 306 307 307 307 308 309 309 310 310 310 310 311 310 310 310 310 310 310 311 311 311 311 310 310 310 309 309 308 308 307 306 304 302 299
281 282 282 282 283 284 285 285 286 287 287 288 289 290 291 292 292 293 293 294 294 295 295 296 296 297 297 298 298 299 299 300 300 301 302 302 302 302 302 303 303 304 304 305 305 305 305 306 306 306 306 306 307 307 308 308 309 309 310 310 311 311 311 311 311 310 310 310 310 311 311 311 311 311 311 310 310 309 309 309 308 308 307 305 303 300
281 281 282 283 283 284 285 286 286 287 287 288 290 291 291 292 293 293 294 294 295 295 295 296 296 297 298 298 299 299 299 300 301 301 302 302 302 302 303 303 304 304 305 305 306 306 306 306 306 306 307 307 307 308 308 309 309 310 310 311 311 311 311 311 311 311 311 311 311 311 312 312 311 311 311 310 310 309 309 309 308 308 307 305 304 301
281 281 282 283 284 285 285 286 286 287 288 289 290 291 292 292 293 293 294 294 295 295 296 296 297 297 298 298 299 299 300 300 301 301 302 303 303 303 303 304 305 305 306 306 306 306 306 307 307 307 307 308 308 308 309 309 310 310 311 311 312 312 312 312 311 311 311 311 311 312 312 312 312 311 311 310 310 309 309 309 308 308 307 305 304 302
281 282 283 283 284 285 285 286 286 288 289 290 291 292 292 293 293 293 294 294 295 295 296 296 297 298 298 299 299 300 300 300 301 302 302 303 303 304 304 305 305 306 306 307 307 307 307 307 307 308 308 308 309 309 309 310 311 311 311 312 312 312 312 312 311 311 311 311 311 312 312 312 312 311 311 310 309 309 309 309 308 308 307 305 304 302
281 282 283 284 284 285 285 286 287 288 290 291 291 292 292 293 293 294 294 295 295 296 296 297 298 298 299 299 300 300 300 301 301 302 303 303 304 304 305 306 306 306 307 307 307 308 308 308 308 308 309 309 309 310 310 311 311 311 312 312 312 312 312 312 311 311 311 311 312 312 312 312 311 311 310 310 309 309 309 309 308 307 306 305 304 303
282 283 283 284 284 285 286 287 288 289 290 291 292 292 292 293 293 294 294 295 295 296 297 297 298 299 299 300 300 300 300 301 302 302 303 304 304 305 306 306 307 307 307 307 308 308 308 308 308 309 309 309 310 310 311 311 311 312 312 313 313 313 312 312 311 311 311 311 312 312 312 312 311 311 310 310 309 309 309 308 308 307 306 305 304 303
283 283 284 284 285 286 287 288 289 290 291 291 292 292 293 293 293 294 295 295 296 297 297 298 299 299 300 300 300 300 301 301 302 303 304 305 305 306 306 307 307 307 308 308 308 309 309 309 309 309 309 309 310 310 311 311 312 312 313 313 313 313 313 312 312 311 311 311 312 312 312 312 311 311 310 310 309 309 308 308 308 307 306 305 304 303
283 283 284 284 285 287 288 289 290 291 291 291 292 292 293 293 294 294 295 296 297 297 298 299 299 300 300 301 301 301 301 302 303 304 304 305 306 306 307 307 308 308 308 309 309 309 309 309 309 309 309 310 310 311 311 312 312 313 313 314 314 313 313 312 312 311 311 312 312 312 312 312 311 311 310 309 309 308 308 308 307 306 305 304 304 303
283 284 284 285 286 288 289 290 290 291 291 291 292 292 293 294 294 295 296 297 297 298 299 299 300 300 300 301 301 301 302 303 303 304 305 306 306 307 308 308 308 308 309 309 309 309 309 309 309 309 310 310 310 311 311 312 313 313 314 314 314 314 313 312 312 312 312 312 312 312 312 312 312 311 310 309 308 308 307 307 306 305 304 304 304 303
283 284 285 286 287 289 290 290 290 291 291 292 292 293 294 294 295 296 297 298 298 299 300 300 300 301 301 301 301 302 303 303 304 305 305 306 307 308 308 308 309 309 309 309 309 309 310 309 309 309 310 310 311 311 312 313 313 314 315 315 315 314 313 313 312 312 312 312 312 312 312 312 312 311 310 309 308 307 307 306 305 304 303 303 303 303
284 285 286 287 288 289 290 290 291 291 292 292 293 294 295 295 296 297 298 299 299 300 300 301 301 301 301 302 302 303 303 304 305 305 306 307 307 308 309 309 309 309 309 310 310 310 310 310 310 310 310 311 311 312 313 313 314 315 315 315 315 315 314 313 312 312 312 313 313 313 313 313 312 311 310 309 307 307 306 306 305 304 303 303 303 303
285 286 288 289 289 290 290 291 291 292 293 293 294 295 295 296 297 298 299 299 300 300 301 301 301 302 302 302 303 304 304 305 306 306 307 308 308 309 309 309 309 310 310 310 310 310 310 310 310 310 311 311 312 313 313 314 315 316 316 316 315 315 314 313 313 313 313 313 313 313 313 313 313 311 310 309 307 307 306 305 304 303 303 303 303 302
287 288 289 289 290 290 291 291 292 293 294 294 295 296 297 297 298 299 299 300 300 301 301 301 302 302 303 303 304 305 305 306 306 307 308 308 309 309 310 310 310 310 311 311 311 311 311 311 311 311 312 312 313 314 314 315 316 317 317 316 316 315 314 314 313 313 313 313 314 314 314 314 313 312 310 309 308 307 306 305 304 303 303 303 302 301
288 289 289 290 290 291 291 292 293 294 294 295 296 297 298 298 299 300 300 300 301 301 301 302 302 303 303 304 305 306 306 307 307 308 308 309 309 310 310 311 311 311 312 312 312 312 312 312 312 312 312 313 314 315 316 316 317 318 317 317 316 315 315 314 314 314 314 314 314 314 314 314 313 312 311 309 308 307 307 306 305 304 303 303 302 301
289 289 290 290 291 292 292 293 294 295 295 296 297 298 299 299 300 300 301 301 301 302 302 303 304 304 305 305 306 306 307 307 308 309 309 310 310 311 311 311 312 312 313 313 313 313 313 313 313 313 314 314 315 316 317 318 318 318 318 317 316 315 315 314 314 314 314 314 315 315 315 315 314 313 312 310 309 308 308 307 306 305 304 303 302 300
289 290 290 291 292 293 293 294 295 296 296 297 298 299 299 300 300 301 301 301 302 302 303 304 305 305 306 307 307 307 308 308 309 309 310 310 311 311 312 312 313 313 314 314 314 314 313 313 313 314 314 315 316 317 318 319 319 319 318 318 317 316 315 315 315 315 315 315 316 316 316 316 315 314 313 311 310 310 309 308 307 306 305 303 302 300
290 290 291 292 293 293 294 295 296 297 297 298 299 299 299 300 300 301 301 302 303 303 304 305 306 306 307 307 308 308 309 309 309 310 310 311 311 312 312 313 313 314 314 314 314 314 314 314 314 314 315 316 317 318 319 319 320 319 319 318 317 317 316 316 316 316 316 316 316 317 317 317 316 315 313 312 311 311 310 309 308 306 305 304 302 300
291 291 292 293 294 295 295 296 297 298 298 299 299 299 300 300 301 302 302 303 304 304 305 306 306 307 308 308 308 309 309 309 310 310 311 311 312 312 313 313 314 314 315 315 315 314 314 314 315 315 316 317 318 319 320 320 320 320 319 318 318 317 317 317 317 317 317 317 318 318 318 318 317 316 314 313 312 312 311 310 309 307 305 304 302 299
292 293 293 294 295 296 296 297 298 298 299 299 299 300 300 301 302 302 303 304 305 305 306 306 307 308 308 308 309 309 309 310 310 311 311 312 312 313 313 314 314 315 315 315 315 315 315 315 315 316 316 317 318 319 320 321 321 321 320 319 318 318 318 318 318 318 318 318 319 319 319 318 317 316 315 314 313 313 312 311 309 307 305 303 301 299
293 294 295 295 296 297 297 297 298 298 299 299 300 300 301 302 303 303 304 305 305 306 306 307 308 308 308 309 309 309 310 310 310 311 311 312 313 313 314 314 315 315 315 315 315 315 315 315 316 316 317 318 319 320 321 321 321 321 320 320 319 319 319 319 319 319 319 319 319 319 319 319 318 317 315 314 314 313 312 311 309 307 305 303 301 298
294 295 295 296 297 297 297 298 298 299 299 300 301 301 302 303 304 304 305 305 306 307 307 308 308 308 308 309 309 309 310 310 310 311 311 312 313 313 314 314 315 315 315 315 315 316 316 316 316 317 318 319 320 321 321 322 322 321 321 320 320 319 319 319 319 319 319 319 320 320 320 319 318 317 316 315 314 314 313 311 309 307 305 302 300 297
295 296 296 297 297 297 298 298 299 300 300 301 302 302 303 304 304 305 305 306 306 307 307 308 308 308 309 309 309 309 310 310 311 311 312 312 313 314 314 315 315 315 315 316 316 316 316 317 317 317 318 319 320 321 321 322 322 321 321 320 320 320 319 319 319 319 320 320 320 320 320 319 319 318 317 316 315 314 313 311 309 307 304 302 299 296
295 296 296 297 297 298 298 299 300 301 301 302 303 303 304 304 305 305 306 306 307 307 307 308 308 308 309 309 309 310 310 311 311 311 312 313 313 314 314 315 315 316 316 316 316 317 317 317 318 318 319 319 320 321 321 322 322 321 321 321 320 320 320 320 320 320 321 321 321 321 320 320 319 318 317 316 315 314 312 310 308 306 304 301 298 295
296 296 297 297 298 299 299 300 301 302 302 303 303 304 304 305 305 306 306 307 307 307 308 308 308 308 309 309 309 310 310 311 311 312 312 313 314 314 315 315 315 316 316 316 317 317 318 318 319 319 319 320 320 321 322 322 322 322 321 321 321 320 320 320 321 321 321 322 321 321 320 320 319 318 317 315 314 313 312 310 308 305 303 300 297 293
Height
10557 10555 10555 10554 10553 10551 10548 10546 10545 10543 10540 10537 10535 10533 10531 10528 10526 10525 10523 10521 10519 10517 10515 10513 10511 10510 10507 10505 10503 10501 10498 10496 10493 10491 10488 10485 10483 10480 10478 10476 10473 10471 10469 10467 10465 10462 10460 10458 10455 10453 10451 10448 10446 10444 10441 10439 10437 10435 10432 10429 10426 10423 10420 10417 10415 10411 10410 10407 10405 10403 10401 10400 10398 10396 10395 10393 10391 10390 10389 10387 10385 10384 10382 10381 10379 10378
10551 10550 10548 10548 10546 10545 10542 10540 10539 10537 10534 10531 10529 10527 10525 10523 10520 10518 10516 10515 10513 10511 10510 10508 10505 10503 10501 10499 10496 10495 10492 10490 10486 10484 10481 10479 10476 10474 10471 10469 10467 10465 10462 10460 10458 10455 10453 10450 10448 10445 10443 10441 10438 10436 10433 10431 10429 10426 10424 10421 10418 10415 10412 10409 10406 10404 10401 10399 10397 10395 10393 10391 10390 10388 10386 10385 10383 10381 10380 10378 10376 10375 10373 10371 10370 10368
10545 10544 10542 10541 10540 10539 10536 10534 10532 10531 10528 10526 10523 10521 10519 10516 10515 10512 10511 10509 10507 10505 10503 10501 10500 10497 10495 10493 10490 10488 10485 10483 10480 10478 10475 10472 10470 10467 10465 10463 10460 10458 10455 10453 10451 10448 10445 10443 10440 10438 10435 10433 10430 10428 10426 10423 10421 10419 10416 10413 10410 10407 10404 10401 10398 10396 10393 10391 10388 10386 10385 10383 10381 10380 10378 10376 10375 10373 10371 10368 10366 10365 10363 10361 10359 10357
10540 10538 10536 10535 10534 10532 10530 10528 10526 10525 10522 10520 10518 10515 10513 10511 10509 10506 10505 10503 10501 10499 10497 10495 10493 10491 10489 10486 10484 10481 10479 10476 10474 10471 10468 10466 10463 10461 10458 10456 10453 10451 10448 10446 10443 10441 10438 10435 10433 10430 10428 10425 10423 10420 10418 10415 10413 10411 10408 10405 10402 10399 10396 10393 10390 10388 10385 10383 10380 10378 10376 10374 10373 10371 10369 10367 10365 10363 10360 10358 10356 10354 10352 10350 10348 10346
10534 10533 10531 10529 10528 10526 10524 10522 10520 10518 10516 10514 10511 10510 10507 10505 10503 10501 10499 10497 10495 10493 10491 10489 10487 10485 10483 10480 10477 10475 10472 10470 10467 10465 10462 10460 10457 10455 10452 10450 10447 10444 10441 10438 10436 10433 10430 10428 10425 10422 10420 10417 10415 10412 10410 10408 10405 10403 10400 10398 10395 10391 10388 10385 10382 10379 10376 10374 10372 10370 10368 10365 10363 10361 10359 10357 10355 10352 10350 10347 10345 10343 10340 10338 10336 10334
10528 10527 10525 10523 10521 10520 10518 10516 10514 10512 10510 10508 10505 10503 10501 10500 10498 10495 10493 10491 10490 10487 10485 10483 10481 10478 10476 10473 10471 10468 10466 10463 10461 10458 10456 10453 10450 10448 10445 10443 10440 10437 10434 10431 10428 10425 10423 10420 10417 10415 10412 10410 10406 10405 10402 10400 10398 10395 10393 10390 10386 10383 10380 10376 10373 10371 10368 10366 10363 10361 10359 10356 10354 10351 10349 10346 10344 10341 10338 10336 10333 10331 10328 10326 10324 10321
10522 10521 10520 10518 10516 10514 10512 10510 10508 10506 10504 10501 10499 10497 10496 10494 10492 10490 10488 10486 10483 10481 10479 10476 10475 10472 10470 10467 10465 10462 10459 10456 10454 10451 10449 10446 10444 10441 10438 10436 10433 10430 10426 10423 10420 10418 10415 10412 10410 10407 10404 10401 10399 10396 10394 10391 10390 10387 10385 10381 10378 10375 10371 10368 10365 10362 10360 10357 10355 10352 10350 10347 10344 10341 10338 10335 10333 10330 10327 10325 10321 10319 10316 10314 10311 10310
10516 10515 10513 10512 10510 10508 10506 10504 10502 10500 10498 10496 10493 10491 10490 10488 10486 10484 10482 10480 10478 10475 10473 10470 10468 10465 10463 10461 10458 10455 10453 10450 10448 10445 10443 10440 10438 10435 10431 10428 10425 10422 10419 10416 10413 10410 10407 10405 10401 10399 10396 10393 10391 10388 10386 10383 10381 10379 10376 10373 10369 10366 10362 10359 10356 10353 10350 10348 10345 10343 10340 10337 10334 10331 10328 10325 10321 10318 10316 10313 10310 10307 10305 10302 10299 10296
10511 10509 10507 10506 10505 10502 10500 10498 10496 10494 10492 10490 10488 10486 10484 10481 10479 10477 10476 10474 10471 10470 10467 10464 10461 10458 10456 10455 10452 10450 10446 10444 10441 10439 10436 10433 10430 10428 10425 10421 10418 10415 10411 10408 10405 10402 10399 10396 10394 10391 10388 10385 10382 10380 10376 10375 10372 10370 10366 10363 10360 10356 10353 10350 10346 10344 10341 10338 10335 10333 10330 10326 10323 10320 10316 10313 10310 10307 10304 10301 10298 10295 10292 10289 10286 10284
10505 10504 10501 10500 10498 10496 10495 10491 10490 10488 10486 10485 10482 10480 10478 10476 10473 10471 10469 10467 10465 10463 10461 10458 10455 10452 10450 10447 10446 10444 10441 10438 10436 10433 10430 10426 10423 10420 10417 10413 10410 10406 10403 10400 10397 10394 10391 10388 10386 10383 10380 10376 10373 10370 10368 10365 10363 10360 10357 10354 10350 10347 10343 10340 10337 10334 10331 10328 10325 10322 10319 10316 10312 10309 10305 10302 10298 10295 10292 10288 10285 10282 10279 10276 10273 10270
10499 10498 10496 10495 10492 10491 10489 10486 10484 10482 10481 10479 10476 10475 10473 10471 10468 10466 10463 10460 10458 10456 10453 10451 10448 10446 10443 10441 10439 10437 10435 10433 10429 10426 10423 10420 10417 10413 10410 10406 10403 10399 10396 10392 10389 10386 10383 10380 10377 10374 10371 10368 10364 10361 10358 10356 10353 10350 10348 10345 10341 10338 10334 10331 10328 10324 10321 10318 10315 10311 10308 10305 10301 10297 10294 10290 10286 10283 10280 10276 10273 10270 10266 10263 10260 10257
10493 10492 10490 10488 10486 10485 10483 10480 10478 10476 10475 10473 10471 10468 10466 10465 10463 10461 10458 10455 10451 10449 10446 10443 10441 10440 10438 10435 10433 10431 10429 10426 10423 10419 10416 10412 10410 10406 10403 10399 10395 10392 10388 10385 10381 10378 10375 10372 10369 10365 10362 10358 10355 10352 10349 10346 10344 10341 10338 10335 10332 10329 10325 10321 10318 10315 10311 10308 10304 10301 10297 10294 10290 10286 10283 10279 10275 10271 10268 10264 10261 10257 10253 10250 10246 10243
10488 10486 10485 10483 10481 10479 10477 10475 10473 10471 10469 10468 10465 10463 10461 10459 10457 10455 10452 10449 10446 10443 10440 10437 10434 10432 10431 10430 10428 10425 10423 10420 10416 10413 10409 10405 10401 10399 10396 10392 10388 10384 10380 10376 10373 10370 10367 10364 10360 10357 10353 10350 10346 10343 10340 10338 10335 10333 10330 10327 10323 10320 10316 10313 10309 10305 10301 10298 10295 10291 10287 10283 10280 10276 10272 10268 10264 10260 10256 10253 10248 10245 10241 10236 10233 10229
10482 10480 10479 10477 10475 10473 10471 10470 10468 10465 10463 10461 10460 10458 10455 10453 10451 10449 10446 10443 10440 10437 10435 10431 10428 10425 10424 10423 10422 10420 10418 10414 10410 10406 10401 10398 10395 10392 10389 10385 10381 10376 10373 10369 10365 10361 10359 10356 10353 10348 10345 10341 10338 10335 10331 10329 10326 10324 10321 10318 10315 10311 10308 10304 10300 10296 10292 10288 10285 10281 10277 10273 10270 10266 10261 10258 10253 10250 10246 10241 10237 10233 10228 10224 10219 10216
10476 10475 10473 10471 10469 10467 10465 10464 10462 10460 10458 10456 10455 10452 10450 10448 10445 10443 10440 10437 10434 10431 10428 10425 10422 10420 10418 10417 10416 10415 10411 10408 10405 10400 10395 10390 10387 10385 10383 10378 10374 10370 10366 10362 10358 10355 10351 10348 10345 10341 10336 10333 10330 10326 10323 10321 10318 10316 10313 10310 10307 10303 10300 10295 10291 10287 10283 10279 10275 10271 10268 10263 10260 10256 10251 10248 10243 10239 10235 10231 10226 10222 10217 10212 10207 10203
10471 10470 10467 10465 10463 10461 10460 10458 10457 10455 10453 10451 10449 10446 10444 10441 10439 10436 10435 10431 10428 10425 10423 10420 10416 10413 10411 10410 10410 10409 10406 10403 10398 10395 10390 10384 10380 10377 10376 10372 10367 10362 10358 10355 10351 10348 10344 10341 10337 10333 10329 10325 10321 10318 10315 10313 10310 10307 10305 10301 10298 10295 10291 10287 10283 10278 10274 10270 10266 10262 10258 10254 10250 10246 10241 10238 10233 10229 10225 10221 10216 10211 10206 10201 10196 10191
10465 10463 10461 10460 10458 10456 10455 10453 10451 10450 10448 10445 10443 10441 10438 10436 10433 10431 10428 10425 10423 10420 10417 10415 10412 10408 10405 10401 10401 10401 10401 10397 10393 10388 10384 10378 10373 10370 10368 10365 10361 10356 10351 10348 10345 10341 10338 10334 10330 10325 10321 10318 10314 10311 10308 10305 10301 10298 10296 10293 10290 10286 10282 10278 10274 10270 10265 10261 10256 10253 10248 10245 10240 10236 10232 10228 10223 10219 10216 10211 10206 10201 10196 10191 10186 10181
10460 10458 10456 10455 10453 10451 10449 10448 10446 10444 10442 10440 10437 10435 10432 10430 10428 10425 10422 10420 10417 10415 10412 10410 10407 10404 10401 10396 10393 10392 10393 10391 10386 10382 10378 10373 10368 10363 10361 10358 10355 10350 10346 10342 10338 10335 10331 10327 10323 10318 10314 10310 10306 10303 10300 10296 10293 10290 10286 10284 10281 10277 10273 10270 10265 10261 10256 10252 10248 10243 10239 10235 10231 10226 10223 10218 10214 10210 10206 10202 10198 10193 10187 10181 10176 10170
10453 10452 10451 10449 10447 10445 10444 10442 10440 10438 10436 10433 10431 10428 10426 10423 10421 10419 10416 10414 10412 10410 10408 10405 10401 10398 10395 10391 10388 10386 10385 10384 10381 10376 10373 10368 10362 10357 10355 10352 10348 10344 10340 10336 10332 10328 10325 10320 10316 10311 10307 10303 10300 10296 10292 10288 10285 10281 10278 10275 10271 10268 10264 10260 10256 10252 10248 10243 10239 10234 10230 10226 10222 10218 10213 10209 10204 10201 10197 10193 10188 10183 10178 10173 10166 10161
10448 10446 10445 10444 10442 10440 10438 10436 10435 10433 10430 10428 10425 10423 10420 10418 10415 10413 10410 10409 10406 10405 10402 10400 10396 10393 10390 10386 10383 10380 10379 10377 10375 10371 10367 10363 10357 10352 10348 10346 10343 10338 10334 10330 10326 10323 10318 10314 10309 10305 10300 10296 10292 10288 10285 10280 10276 10273 10269 10265 10262 10258 10255 10251 10247 10243 10239 10234 10230 10226 10221 10217 10213 10208 10204 10199 10195 10191 10188 10183 10179 10174 10169 10164 10158 10152
10443 10441 10440 10439 10437 10435 10433 10431 10429 10426 10425 10422 10420 10417 10414 10411 10409 10406 10405 10403 10401 10399 10396 10393 10390 10386 10384 10381 10377 10374 10373 10371 10369 10366 10361 10357 10352 10347 10343 10340 10337 10333 10328 10324 10320 10316 10312 10307 10302 10297 10293 10289 10285 10281 10277 10273 10269 10265 10261 10257 10253 10249 10245 10241 10237 10233 10228 10224 10220 10216 10212 10208 10204 10199 10194 10190 10186 10182 10178 10174 10170 10166 10161 10155 10149 10143
10438 10436 10435 10433 10431 10430 10427 10425 10423 10421 10418 10416 10414 10411 10408 10406 10403 10401 10399 10398 10396 10393 10390 10387 10384 10381 10378 10375 10371 10368 10366 10365 10363 10361 10357 10353 10347 10341 10337 10335 10331 10327 10323 10318 10314 10310 10305 10301 10296 10291 10286 10282 10278 10274 10270 10265 10261 10257 10253 10248 10244 10239 10235 10231 10226 10222 10217 10213 10208 10204 10201 10197 10193 10189 10184 10180 10176 10173 10169 10165 10161 10158 10153 10148 10141 10135
10433 10431 10430 10428 10426 10424 10421 10419 10416 10415 10413 10411 10408 10406 10403 10401 10398 10396 10394 10392 10390 10387 10384 10381 10378 10375 10371 10369 10365 10363 10361 10360 10358 10355 10353 10348 10342 10336 10331 10328 10325 10321 10316 10313 10308 10303 10298 10294 10289 10285 10280 10276 10271 10266 10263 10258 10254 10250 10245 10241 10236 10231 10226 10221 10216 10211 10206 10201 10196 10193 10189 10185 10181 10177 10173 10169 10165 10162 10159 10156 10153 10149 10146 10140 10134 10128
10428 10426 10424 10422 10420 10418 10415 10413 10411 10409 10407 10405 10403 10400 10398 10396 10393 10391 10390 10387 10385 10381 10378 10375 10371 10368 10365 10362 10360 10356 10354 10353 10351 10350 10346 10343 10337 10331 10326 10323 10319 10315 10310 10306 10303 10298 10293 10287 10282 10278 10273 10269 10265 10260 10255 10251 10246 10242 10238 10233 10228 10222 10217 10211 10206 10201 10195 10190 10185 10181 10178 10174 10169 10165 10161 10157 10154 10151 10148 10146 10144 10141 10138 10133 10128 10121
10422 10420 10418 10416 10414 10412 10410 10408 10406 10404 10402 10400 10397 10395 10392 10390 10388 10386 10384 10381 10379 10376 10373 10370 10366 10363 10359 10356 10353 10350 10347 10346 10345 10343 10341 10336 10331 10326 10321 10318 10315 10310 10305 10301 10297 10293 10287 10281 10276 10271 10267 10262 10258 10253 10248 10244 10239 10234 10230 10225 10219 10214 10209 10203 10197 10191 10186 10180 10176 10171 10168 10163 10159 10154 10149 10145 10141 10139 10136 10134 10133 10131 10128 10125 10121 10114
10417 10415 10413 10410 10408 10406 10404 10402 10401 10398 10396 10394 10391 10390 10388 10386 10383 10381 10378 10376 10373 10371 10368 10365 10361 10357 10353 10350 10346 10343 10340 10338 10338 10337 10335 10331 10325 10320 10315 10312 10309 10305 10300 10296 10291 10286 10281 10275 10270 10265 10260 10255 10251 10246 10241 10237 10232 10228 10223 10218 10212 10206 10201 10195 10189 10183 10178 10172 10167 10163 10158 10154 10149 10144 10139 10134 10131 10128 10125 10123 10121 10119 10118 10115 10111 10107
10411 10409 10407 10405 10403 10401 10399 10397 10395 10393 10391 10389 10386 10385 10383 10381 10378 10375 10372 10370 10368 10365 10362 10359 10355 10351 10348 10345 10341 10337 10334 10332 10331 10330 10328 10325 10320 10315 10310 10306 10303 10300 10295 10291 10286 10281 10275 10269 10263 10258 10254 10249 10244 10239 10234 10230 10226 10221 10216 10211 10205 10199 10194 10188 10182 10176 10169 10164 10159 10154 10150 10146 10141 10135 10130 10125 10121 10118 10115 10113 10111 10110 10108 10105 10102 10098
10406 10403 10401 10400 10398 10396 10394 10392 10390 10388 10385 10383 10382 10380 10378 10376 10373 10370 10366 10364 10362 10360 10356 10353 10350 10346 10343 10339 10335 10331 10328 10326 10324 10323 10321 10318 10314 10309 10305 10301 10297 10294 10290 10285 10281 10276 10270 10263 10257 10251 10247 10243 10238 10233 10228 10223 10219 10214 10209 10204 10198 10193 10187 10181 10174 10168 10163 10157 10152 10147 10143 10138 10133 10128 10122 10118 10113 10109 10107 10105 10103 10101 10099 10097 10094 10090
10400 10398 10396 10395 10393 10391 10389 10386 10385 10382 10380 10379 10377 10375 10373 10371 10368 10365 10361 10359 10356 10354 10350 10347 10345 10341 10338 10335 10330 10326 10323 10320 10318 10317 10315 10312 10307 10303 10299 10295 10291 10288 10284 10280 10275 10270 10265 10258 10251 10246 10240 10236 10231 10226 10222 10217 10213 10208 10203 10198 10193 10187 10181 10174 10168 10162 10156 10150 10145 10141 10136 10131 10126 10120 10115 10110 10106 10103 10099 10098 10096 10094 10092 10089 10086 10083
10395 10393 10391 10390 10388 10386 10383 10381 10379 10377 10376 10374 10373 10371 10368 10366 10363 10360 10356 10354 10351 10348 10345 10341 10339 10336 10333 10330 10325 10320 10316 10313 10312 10311 10310 10305 10301 10296 10293 10288 10284 10281 10278 10274 10269 10263 10257 10252 10246 10240 10234 10229 10224 10220 10216 10211 10206 10202 10197 10193 10187 10181 10175 10168 10162 10156 10150 10144 10139 10135 10130 10125 10119 10114 10108 10103 10099 10096 10093 10091 10088 10086 10085 10083 10080 10076
10390 10388 10386 10385 10383 10381 10378 10376 10374 10373 10371 10370 10368 10365 10363 10360 10358 10355 10351 10349 10346 10343 10340 10336 10333 10331 10328 10325 10321 10316 10310 10306 10305 10305 10303 10300 10295 10290 10287 10283 10277 10273 10270 10268 10264 10258 10251 10245 10239 10234 10229 10223 10218 10213 10209 10205 10201 10196 10191 10186 10181 10176 10169 10163 10156 10150 10144 10139 10134 10129 10124 10119 10114 10108 10103 10097 10093 10089 10086 10084 10081 10079 10078 10076 10074 10071
10385 10383 10382 10380 10378 10376 10373 10371 10370 10368 10366 10365 10362 10360 10358 10355 10352 10350 10346 10344 10341 10338 10335 10331 10328 10325 10322 10319 10316 10311 10306 10301 10299 10298 10296 10293 10288 10284 10281 10277 10271 10266 10263 10260 10257 10253 10248 10241 10234 10229 10223 10218 10213 10207 10202 10198 10194 10191 10186 10181 10175 10169 10164 10158 10151 10145 10139 10134 10129 10124 10119 10114 10108 10103 10097 10091 10086 10083 10079 10078 10075 10073 10071 10069 10067 10065
10380 10378 10376 10375 10373 10370 10368 10367 10365 10363 10361 10360 10357 10355 10352 10350 10347 10344 10341 10338 10336 10333 10330 10326 10323 10320 10316 10313 10309 10305 10301 10297 10294 10292 10290 10287 10283 10278 10274 10270 10266 10260 10256 10252 10248 10245 10241 10236 10231 10224 10219 10214 10208 10203 10197 10192 10188 10184 10180 10175 10169 10163 10158 10151 10145 10140 10135 10130 10125 10120 10115 10109 10104 10098 10092 10086 10081 10077 10074 10071 10069 10066 10064 10062 10061 10059
10375 10373 10371 10370 10367 10365 10364 10362 10361 10359 10356 10355 10352 10350 10347 10345 10341 10339 10336 10333 10331 10328 10325 10322 10318 10315 10310 10306 10302 10298 10294 10291 10288 10286 10283 10281 10276 10272 10268 10264 10260 10255 10250 10245 10241 10237 10233 10228 10224 10219 10214 10208 10204 10199 10193 10188 10183 10178 10174 10169 10164 10158 10151 10144 10139 10134 10129 10125 10121 10116 10110 10105 10099 10094 10088 10082 10076 10073 10069 10066 10063 10061 10058 10056 10054 10054
10370 10368 10366 10365 10363 10361 10360 10358 10356 10354 10351 10350 10347 10345 10342 10340 10336 10333 10331 10328 10325 10322 10320 10316 10313 10310 10306 10301 10297 10292 10288 10284 10281 10280 10277 10274 10271 10266 10262 10258 10253 10249 10244 10239 10235 10231 10226 10221 10218 10213 10209 10203 10198 10193 10189 10184 10178 10173 10168 10163 10158 10151 10144 10138 10133 10128 10124 10119 10115 10110 10105 10100 10095 10089 10083 10078 10073 10068 10065 10062 10059 10056 10053 10051 10049 10048
10365 10363 10361 10360 10358 10356 10355 10353 10351 10349 10346 10344 10342 10340 10337 10334 10331 10328 10325 10323 10320 10316 10314 10310 10307 10303 10300 10296 10292 10288 10283 10279 10276 10273 10270 10268 10265 10261 10256 10251 10247 10243 10239 10233 10229 10225 10221 10216 10211 10208 10203 10199 10193 10188 10183 10179 10174 10169 10164 10158 10151 10144 10138 10131 10126 10122 10118 10113 10109 10104 10100 10095 10089 10084 10079 10074 10069 10065 10061 10058 10054 10051 10048 10046 10044 10043
10360 10358 10356 10355 10354 10352 10350 10348 10346 10344 10341 10339 10336 10334 10331 10329 10326 10323 10320 10317 10314 10311 10308 10305 10301 10297 10293 10290 10286 10283 10278 10274 10270 10267 10264 10261 10258 10255 10251 10245 10241 10237 10233 10228 10223 10218 10214 10210 10206 10201 10198 10194 10189 10184 10179 10173 10169 10164 10159 10153 10146 10138 10130 10124 10119 10115 10111 10107 10103 10099 10094 10089 10084 10079 10074 10069 10065 10061 10058 10055 10051 10047 10043 10041 10039 10038
10355 10353 10351 10350 10349 10348 10345 10343 10341 10338 10336 10334 10331 10329 10326 10323 10320 10318 10315 10311 10309 10306 10302 10298 10295 10290 10286 10283 10280 10276 10272 10268 10265 10261 10257 10254 10251 10248 10245 10239 10234 10230 10226 10223 10218 10213 10208 10204 10199 10195 10191 10187 10183 10179 10174 10169 10164 10159 10154 10148 10141 10134 10126 10118 10113 10109 10105 10101 10097 10093 10089 10084 10079 10074 10069 10064 10060 10057 10054 10051 10047 10043 10039 10037 10035 10034
10350 10348 10347 10346 10344 10342 10340 10338 10335 10333 10331 10329 10326 10323 10321 10318 10315 10312 10310 10306 10303 10300 10296 10293 10289 10285 10280 10276 10273 10269 10266 10262 10258 10255 10251 10248 10244 10241 10238 10233 10228 10223 10219 10215 10211 10206 10201 10197 10193 10189 10185 10181 10177 10173 10169 10164 10158 10153 10148 10142 10136 10129 10121 10114 10108 10103 10099 10095 10091 10086 10083 10079 10074 10069 10064 10059 10056 10053 10049 10047 10043 10039 10036 10033 10031 10030
10345 10344 10342 10340 10339 10337 10335 10332 10330 10328 10326 10323 10321 10318 10315 10313 10310 10306 10303 10301 10298 10295 10291 10287 10283 10279 10275 10271 10267 10263 10259 10255 10251 10248 10245 10241 10237 10234 10230 10226 10221 10216 10212 10207 10203 10198 10194 10189 10185 10181 10179 10175 10171 10167 10163 10158 10152 10146 10141 10136 10129 10123 10116 10109 10102 10096 10093 10089 10085 10081 10077 10073 10069 10064 10059 10054 10051 10048 10045 10042 10039 10036 10033 10029 10028 10026
10340 10339 10337 10335 10333 10331 10330 10327 10325 10323 10320 10318 10315 10313 10310 10307 10304 10301 10298 10295 10291 10288 10285 10281 10277 10273 10268 10265 10261 10257 10253 10249 10245 10241 10238 10234 10231 10227 10223 10219 10214 10210 10205 10200 10195 10191 10186 10182 10177 10173 10170 10168 10164 10160 10156 10151 10146 10140 10134 10129 10123 10118 10112 10106 10099 10093 10088 10084 10080 10076 10072 10068 10064 10059 10054 10049 10046 10044 10041 10038 10034 10031 10029 10026 10024 10022
10336 10334 10332 10330 10328 10326 10324 10322 10320 10317 10315 10313 10310 10307 10305 10302 10299 10296 10292 10288 10285 10281 10278 10275 10271 10267 10262 10257 10253 10250 10246 10243 10239 10235 10231 10228 10224 10220 10216 10212 10208 10203 10199 10193 10188 10183 10179 10175 10171 10166 10162 10159 10156 10153 10149 10144 10139 10134 10128 10122 10116 10111 10105 10100 10095 10089 10084 10078 10074 10070 10066 10063 10058 10054 10049 10045 10041 10039 10036 10034 10031 10028 10025 10023 10021 10019
10331 10329 10327 10325 10323 10321 10319 10316 10314 10312 10310 10307 10305 10302 10300 10297 10294 10291 10287 10283 10280 10276 10272 10269 10266 10261 10257 10252 10248 10243 10239 10236 10232 10229 10225 10221 10218 10213 10209 10205 10201 10197 10193 10188 10183 10177 10172 10168 10164 10161 10156 10153 10149 10146 10142 10138 10133 10128 10122 10116 10110 10104 10098 10093 10088 10084 10079 10074 10069 10065 10061 10057 10053 10049 10044 10041 10037 10034 10032 10029 10026 10024 10021 10019 10018 10016
10326 10324 10322 10320 10318 10316 10314 10311 10309 10306 10305 10302 10299 10296 10294 10291 10288 10285 10281 10278 10274 10270 10267 10263 10260 10256 10252 10248 10243 10238 10234 10229 10226 10223 10219 10215 10211 10208 10204 10199 10195 10191 10187 10183 10178 10172 10166 10161 10157 10153 10151 10147 10144 10139 10135 10131 10127 10122 10116 10110 10104 10098 10092 10086 10082 10078 10073 10069 10064 10061 10056 10052 10048 10044 10040 10036 10033 10031 10028 10026 10023 10020 10018 10016 10014 10013
10321 10319 10317 10315 10313 10311 10308 10306 10304 10301 10299 10296 10294 10291 10288 10285 10283 10280 10276 10272 10268 10265 10261 10258 10255 10250 10246 10241 10238 10234 10229 10224 10220 10216 10213 10209 10206 10202 10198 10194 10190 10186 10181 10176 10172 10168 10163 10156 10151 10147 10143 10141 10138 10134 10130 10125 10120 10115 10110 10104 10098 10092 10086 10081 10076 10072 10068 10063 10059 10056 10052 10048 10044 10040 10036 10032 10029 10027 10024 10022 10019 10017 10015 10013 10012 10010
10316 10314 10312 10310 10308 10306 10303 10301 10298 10296 10293 10291 10288 10285 10283 10280 10276 10273 10270 10267 10263 10259 10255 10252 10250 10246 10241 10236 10233 10228 10224 10219 10215 10211 10208 10204 10200 10196 10193 10189 10185 10181 10176 10171 10166 10161 10157 10152 10146 10141 10138 10134 10131 10128 10124 10120 10115 10109 10104 10098 10093 10086 10081 10076 10071 10066 10062 10058 10054 10051 10048 10044 10041 10036 10033 10029 10026 10023 10021 10019 10016 10014 10012 10010 10009 10008
10311 10310 10307 10305 10303 10300 10298 10296 10293 10291 10288 10285 10282 10280 10277 10274 10271 10268 10264 10261 10258 10254 10250 10246 10243 10239 10236 10231 10228 10224 10220 10215 10211 10207 10203 10199 10195 10191 10188 10184 10179 10176 10171 10167 10161 10156 10151 10146 10141 10136 10132 10129 10125 10122 10119 10114 10109 10104 10098 10093 10087 10081 10076 10071 10066 10062 10058 10054 10050 10046 10043 10040 10036 10033 10029 10026 10023 10020 10018 10016 10014 10011 10009 10008 10006 10005
10306 10305 10302 10300 10298 10295 10293 10290 10288 10285 10282 10280 10276 10273 10271 10268 10266 10262 10258 10255 10252 10249 10245 10241 10237 10234 10229 10226 10222 10219 10215 10211 10207 10203 10199 10195 10191 10187 10183 10179 10175 10171 10166 10162 10157 10152 10146 10141 10136 10131 10127 10123 10119 10116 10113 10110 10105 10099 10093 10088 10082 10077 10072 10068 10063 10058 10054 10050 10046 10043 10039 10036 10033 10029 10026 10023 10019 10017 10015 10013 10011 10009 10008 10006 10004 10003
10301 10300 10297 10295 10292 10290 10287 10285 10283 10280 10277 10274 10271 10268 10265 10262 10260 10257 10253 10250 10246 10243 10239 10236 10232 10228 10224 10220 10216 10213 10209 10206 10202 10198 10194 10191 10187 10183 10178 10174 10171 10166 10161 10157 10153 10148 10142 10136 10131 10126 10123 10119 10115 10111 10108 10105 10102 10096 10090 10084 10078 10073 10068 10064 10059 10055 10051 10046 10043 10039 10036 10033 10029 10026 10023 10019 10017 10014 10012 10010 10008 10007 10005 10004 10003 10001
10296 10295 10292 10290 10287 10285 10282 10280 10277 10274 10271 10268 10266 10263 10259 10256 10253 10251 10248 10245 10241 10238 10234 10231 10227 10223 10219 10215 10211 10208 10204 10201 10197 10193 10189 10186 10183 10178 10174 10170 10166 10162 10157 10153 10148 10143 10138 10131 10126 10121 10117 10114 10111 10108 10104 10100 10097 10093 10087 10081 10075 10069 10064 10060 10056 10051 10047 10043 10039 10036 10033 10029 10026 10023 10020 10017 10014 10012 10010 10008 10006 10004 10003 10002 10001 9999
10291 10289 10287 10285 10282 10280 10276 10274 10271 10269 10266 10263 10260 10258 10255 10251 10248 10245 10242 10239 10236 10232 10228 10225 10222 10218 10214 10210 10206 10203 10199 10196 10192 10188 10184 10181 10178 10174 10169 10166 10162 10158 10153 10148 10144 10139 10134 10128 10121 10115 10110 10108 10106 10103 10099 10096 10091 10087 10082 10076 10071 10066 10060 10056 10052 10048 10044 10040 10036 10033 10029 10026 10023 10021 10018 10015 10012 10010 10008 10006 10004 10003 10001 10000 9999 9998